Regional Weather Roundup
Issued by NWS

Home | Current Version | Previous Version | Graphics & Text | Print | Product List | Glossary On
Versions: 1 2 3 4 5 6 7 8 9 10 11 12 13 14 15 16 17 18 19 20 21 22 23 24 25 26 27 28 29 30 31 32 33 34 35 36 37 38 39 40 41 42 43 44 45 46 47 48 49 50
000
ASUS43 KLMK 231202
RWRKY
KENTUCKY REGIONAL WEATHER ROUNDUP
NATIONAL WEATHER SERVICE LOUISVILLE KY
800 AM EDT TUE SEP 23 2014

NOTE "FAIR" INDICATES FEW OR NO CLOUDS BELOW 12,000 FEET
WITH NO SIGNIFICANT WEATHER AND/OR OBSTRUCTIONS TO VISIBILITY.

KYZ001>023-026-027-061>063-070>075-231300-
WESTERN AND SOUTH CENTRAL KENTUCKY

CITY           SKY/WX    TMP DP  RH WIND       PRES   REMARKS
PADUCAH        CLEAR     48  44  86 CALM      30.27R
HENDERSON      CLEAR     43  37  81 CALM      30.31R
OWENSBORO      CLEAR     47  45  93 CALM      30.31R
HOPKINSVILLE   CLEAR     48  45  88 N5        30.27R
BOWLING GREEN  CLEAR    N/A N/A N/A CALM      30.29R
GLASGOW        CLEAR     44  44 100 CALM      30.28R
$$

KYZ024-025-028>034-038-045-046-053-231300-
NORTH CENTRAL KENTUCKY

CITY           SKY/WX    TMP DP  RH WIND       PRES   REMARKS
LOUISVILLE/SDF CLEAR     51  44  77 NE3       30.31R
LOUISVILLE/LOU CLEAR     50  44  80 CALM      30.32R
FORT KNOX      CLEAR     45  42  90 NE2       30.29S
$$

KYZ035>037-039>044-047>052-055>060-089>105-231300-
NORTHEAST KENTUCKY

CITY           SKY/WX    TMP DP  RH WIND       PRES   REMARKS
LEXINGTON      CLEAR     47  41  80 NE6       30.31R
COVINGTON      CLEAR     48  45  89 CALM      30.32R
FRANKFORT      CLEAR     42  39  89 CALM      30.31R
$$

KYZ054-064>069-076>088-106>120-231300-
SOUTHEAST KENTUCKY

CITY           SKY/WX    TMP DP  RH WIND       PRES   REMARKS
JACKSON        CLEAR     48  44  86 CALM      30.30R
LONDON         CLEAR     46  42  86 CALM      30.30R
SOMERSET       CLEAR     46  45  93 CALM      30.30R
MIDDLESBORO    FOG       47  47 100 NW3       30.30R VSB 1/2
MONTICELLO     SUNNY     42  42 100 CALM      30.30R
$$



USA.gov is the U.S. government's official web portal to all federal, state and local government web resources and services.